This is the latest recevied weather packets stored in our database for station/object KC2G. If no packets are shown the sender has not sent any weather packets the latest 10 day(s).
| Time | Temp. | Humidity | Pressure | Rain* | Wind** | Luminosity | Snow |
|---|---|---|---|---|---|---|---|
| 1777581055 | 14.44° C | 73% | 1007.2 hPa | 0 mm | 0.45 m/s, 256° | - | - |
| 1777580239 | 13.89° C | 81% | 1007.3 hPa | 0 mm | 0.45 m/s, 256° | - | - |
| 1777580154 | 13.89° C | 78% | 1007.2 hPa | 0 mm | 0 m/s | - | - |
| 1777579256 | 13.89° C | 82% | 1007.2 hPa | 0 mm | 0 m/s | - | - |
| 1777578355 | 13.89° C | 81% | 1007.3 hPa | 0 mm | 0.45 m/s, 256° | - | - |
| 1777578320 | 14.44° C | 79% | 1007.2 hPa | 0 mm | 0 m/s | - | - |
| 1777577455 | 14.44° C | 76% | 1007.3 hPa | 0 mm | 0.45 m/s, 240° | - | - |
| 1777576670 | 14.44° C | 79% | 1007.2 hPa | 0 mm | 0 m/s | - | - |
| 1777576555 | 14.44° C | 79% | 1007.2 hPa | 0 mm | 0 m/s | - | - |
| 1777575656 | 14.44° C | 80% | 1007.2 hPa | 0 mm | 0 m/s | - | - |
| 1777574755 | 13.89° C | 81% | 1007.4 hPa | 0 mm | 0 m/s | - | - |
| 1777573857 | 13.89° C | 83% | 1007.5 hPa | 0 mm | 0 m/s | - | - |
| 1777572955 | 13.89° C | 82% | 1007.5 hPa | 0 mm | 0.45 m/s, 230° | - | - |
| 1777572055 | 13.89° C | 83% | 1007.4 hPa | 0 mm | 0 m/s | - | - |
| 1777571154 | 14.44° C | 80% | 1007.4 hPa | 0 mm | 0.45 m/s, 234° | - | - |
| 1777570255 | 14.44° C | 81% | 1007.5 hPa | 0 mm | 0.89 m/s, 336° | - | - |
| 1777569355 | 13.33° C | 88% | 1007.7 hPa | 0 mm | 0.45 m/s, 56° | - | - |
| 1777568455 | 12.22° C | 93% | 1007.8 hPa | 0 mm | 0 m/s | - | - |
| 1777567555 | 12.22° C | 96% | 1008.1 hPa | 0 mm | 0 m/s | - | - |
| 1777566656 | 11.67° C | 99% | 1008.2 hPa | 0 mm | 0 m/s | - | - |
| 1777565755 | 11.11° C | 99% | 1008.4 hPa | 0 mm | 0 m/s | - | - |
| 1777564856 | 11.67° C | 99% | 1008.6 hPa | 0 mm | 0 m/s | - | - |
| 1777563996 | 11.11° C | 99% | 1008.7 hPa | 0 mm | 0.45 m/s, 146° | - | - |
| 1777563954 | 11.11° C | 99% | 1008.7 hPa | 0 mm | 0.45 m/s, 146° | - | - |
| 1777563055 | 10.56° C | 100% | 1008.7 hPa | 0 mm | 0.45 m/s, 129° | - | - |
* Rain latest hour (hover to see other rain measurements)
** Current wind speed in m/s (hover to see current wind gust speed)